EW6866 Weather Reports


time (UTC)temp
C
wind
direction
speed
KPH
gust
KPH
rain 1hr
cm
rain 24hr
cm
rain mn
cm
humidity
%
barometer
mb
20260903000004 28 0 0.0 0.0 0.00 0.00 0.00 88 1015.7
20260902234505 28 65 0.0 1.6 0.00 0.00 0.00 88 1015.9
20260902233026 28 79 0.0 1.6 0.00 0.00 0.00 87 1016.1
20260902231525 29 63 0.0 1.6 0.00 0.00 0.00 87 1016.4
20260902230005 29 71 0.0 1.6 0.00 0.00 0.00 86 1016.0
20260902224505 30 81 0.0 3.2 0.00 0.00 0.00 84 1015.9
20260902223025 30 59 0.0 4.8 0.00 0.00 0.00 82 1016.0
20260902221504 30 59 1.6 3.2 0.00 0.00 0.00 82 1015.8
20260902220005 31 60 1.6 4.8 0.00 0.00 0.00 80 1015.8
20260902214505 31 52 0.0 3.2 0.00 0.00 0.00 80 1015.9
20260902213004 32 41 0.0 3.2 0.00 0.00 0.00 79 1016.0
20260902211504 32 46 0.0 3.2 0.00 0.00 0.00 77 1015.8
20260902210004 32 56 1.6 6.4 0.00 0.00 0.00 77 1015.3
20260902204505 33 60 0.0 3.2 0.00 0.00 0.00 77 1014.9
20260902203025 33 62 0.0 1.6 0.00 0.00 0.00 74 1014.9
20260902201505 35 273 0.0 1.6 0.00 0.00 0.00 70 1015.0
20260902200004 36 267 0.0 6.4 0.00 0.00 0.00 65 1015.1
20260902194505 36 109 0.0 1.6 0.00 0.00 0.00 57 1015.3
20260902193004 36 59 0.0 1.6 0.00 0.00 0.00 60 1015.5
20260902191504 36 85 0.0 1.6 0.00 0.00 0.00 58 1015.6
20260902190004 36 96 0.0 3.2 0.00 0.00 0.00 58 1015.8
20260902184505 36 138 0.0 3.2 0.00 0.00 0.00 61 1015.7
20260902183004 36 117 0.0 3.2 0.00 0.00 0.00 60 1015.8
20260902181504 35 75 0.0 3.2 0.00 0.00 0.00 61 1015.8
20260902180006 36 106 0.0 1.6 0.00 0.00 0.00 59 1015.9
20260902174505 36 145 0.0 1.6 0.00 0.00 0.00 62 1015.8
20260902173005 35 75 0.0 3.2 0.00 0.00 0.00 63 1015.8
20260902171504 34 79 0.0 3.2 0.00 0.00 0.00 67 1015.9
20260902170004 34 91 0.0 3.2 0.00 0.00 0.00 68 1015.9
20260902164504 34 76 0.0 1.6 0.00 0.00 0.00 66 1016.0
20260902163004 33 80 0.0 1.6 0.00 0.00 0.00 73 1016.1
20260902161504 33 118 0.0 3.2 0.00 0.00 0.00 72 1016.2
20260902160007 33 138 0.0 4.8 0.00 0.00 0.00 73 1016.2
20260902154504 33 170 0.0 6.4 0.00 0.00 0.00 71 1016.3
20260902153026 33 0 0.0 0.0 0.00 0.00 0.00 72 1016.3
20260902151503 32 188 0.0 3.2 0.00 0.00 0.00 73 1016.2
20260902150004 31 135 0.0 6.4 0.00 0.00 0.00 75 1016.1
20260902144503 31 183 0.0 3.2 0.00 0.00 0.00 78 1016.0
20260902143004 30 215 0.0 3.2 0.00 0.00 0.00 81 1015.9
20260902141504 29 180 0.0 3.2 0.00 0.00 0.00 81 1015.9
20260902140004 28 144 0.0 4.8 0.00 0.00 0.00 84 1016.0
20260902134503 28 232 0.0 1.6 0.00 0.00 0.00 85 1015.9
20260902133004 27 151 0.0 1.6 0.00 0.00 0.00 86 1016.1
20260902131504 27 160 0.0 3.2 0.00 0.00 0.00 87 1016.2
20260902130003 26 127 0.0 4.8 0.00 0.00 0.00 88 1016.1
20260902124504 26 119 0.0 3.2 0.00 0.00 0.00 89 1016.1
20260902123004 26 185 0.0 3.2 0.00 0.00 0.00 90 1016.2
20260902121503 25 147 0.0 4.8 0.00 0.00 0.00 92 1016.3
20260902120004 25 219 0.0 3.2 0.00 0.00 0.00 94 1016.2
20260902114504 24 118 0.0 1.6 0.00 0.00 0.00 95 1016.1
20260902113003 24 0 0.0 0.0 0.00 0.00 0.00 95 1015.9
20260902111504 23 0 0.0 0.0 0.00 0.00 0.00 95 1015.8
20260902110005 23 0 0.0 0.0 0.00 0.00 0.00 95 1015.8
20260902104504 23 119 0.0 1.6 0.00 0.00 0.00 95 1015.7
20260902103024 23 0 0.0 0.0 0.00 0.00 0.00 94 1015.7
20260902101504 23 0 0.0 0.0 0.00 0.00 0.00 94 1015.8
20260902100004 23 0 0.0 0.0 0.00 0.00 0.00 94 1015.7
20260902094503 24 0 0.0 0.0 0.00 0.00 0.00 94 1015.6
20260902093003 24 0 0.0 0.0 0.00 0.00 0.00 94 1015.7
20260902091504 24 0 0.0 0.0 0.00 0.00 0.00 94 1015.6
20260902090025 24 0 0.0 0.0 0.00 0.00 0.00 94 1015.5
20260902084503 24 0 0.0 0.0 0.00 0.00 0.00 93 1015.5
20260902083003 24 0 0.0 0.0 0.00 0.00 0.00 93 1015.5
20260902081504 24 0 0.0 0.0 0.00 0.00 0.00 93 1015.5
20260902080003 24 0 0.0 0.0 0.00 0.00 0.00 93 1015.4
20260902074505 24 0 0.0 0.0 0.00 0.00 0.00 92 1015.5
20260902073005 24 0 0.0 0.0 0.00 0.00 0.00 92 1015.7
20260902071505 24 143 0.0 1.6 0.00 0.00 0.00 91 1015.7
20260902070007 25 0 0.0 0.0 0.00 0.00 0.00 90 1015.8
20260902064505 25 0 0.0 0.0 0.00 0.00 0.00 90 1015.9
20260902063005 25 0 0.0 0.0 0.00 0.00 0.00 89 1015.9
20260902061505 25 136 0.0 4.8 0.00 0.00 0.00 89 1016.0
20260902060005 25 125 0.0 1.6 0.00 0.00 0.00 89 1016.1
20260902054505 25 0 0.0 0.0 0.00 0.00 0.00 89 1016.2
20260902053026 25 126 0.0 1.6 0.00 0.00 0.00 89 1016.1
20260902051505 25 0 0.0 0.0 0.00 0.00 0.00 88 1016.2
20260902050007 25 134 0.0 1.6 0.00 0.00 0.00 88 1016.3
20260902044505 25 0 0.0 0.0 0.00 0.00 0.00 88 1016.1
20260902043026 26 228 0.0 1.6 0.00 0.00 0.00 87 1015.8
20260902041505 26 0 0.0 0.0 0.00 0.00 0.00 86 1015.6
20260902040006 26 229 0.0 1.6 0.00 0.00 0.00 86 1015.4
20260902034504 26 139 0.0 3.2 0.00 0.00 0.00 85 1015.5
20260902033026 26 131 0.0 3.2 0.00 0.00 0.00 86 1015.6
20260902031526 27 151 0.0 3.2 0.00 0.00 0.00 86 1015.7
20260902030005 27 210 0.0 1.6 0.00 0.00 0.00 86 1015.5
20260902024505 27 207 0.0 4.8 0.00 0.00 0.00 86 1015.4
20260902023026 27 169 0.0 6.4 0.00 0.00 0.00 86 1015.4
20260902021505 27 0 0.0 0.0 0.00 0.00 0.00 87 1015.4
20260902020005 27 240 0.0 3.2 0.00 0.00 0.00 87 1015.1
20260902014525 27 215 0.0 4.8 0.00 0.00 0.00 87 1014.8
20260902013006 28 243 0.0 6.4 0.00 0.00 0.00 86 1014.7
20260902011526 28 222 0.0 4.8 0.00 0.00 0.00 87 1014.6
20260902010005 28 176 0.0 4.8 0.00 0.00 0.00 86 1014.7
20260902004505 28 260 0.0 3.2 0.00 0.00 0.00 85 1014.5
20260902003004 28 266 0.0 1.6 0.00 0.00 0.00 84 1014.6
20260902001505 29 253 0.0 8.0 0.00 0.00 0.00 82 1014.4